,,,PA_Meas_PMT16A,,PR_Meas_QMR101_102,,RH_Meas_QMH101,,SR_Meas_QMS101,,TA_Meas_QMH101,,GenWind,,GenWind,
date,time,status,PA,status,PR,status,RH,status,SR,status,TA,status,DirAvg,status,SpdAvg,
2009-02-08, 00:00:04,VALID,999.541,VALID,0,VALID,94.7599,VALID,0,VALID,24.4251,VALID,74,VALID,0,
2009-02-08, 00:01:04,VALID,999.505,VALID,0,VALID,94.8057,VALID,0,VALID,24.4251,VALID,74,VALID,0,
2009-02-08, 00:02:04,VALID,999.468,VALID,0,VALID,94.8362,VALID,0,VALID,24.4251,VALID,76,VALID,0.751562,
2009-02-08, 00:03:04,VALID,999.42,VALID,0,VALID,94.8591,VALID,0,VALID,24.4251,VALID,88,VALID,0.969922,
2009-02-08, 00:04:04,VALID,999.406,VALID,0,VALID,94.8438,VALID,0,VALID,24.4251,VALID,91,VALID,0.930078,
2009-02-08, 00:05:04,VALID,999.434,VALID,0,VALID,94.8514,VALID,0,VALID,24.4251,VALID,91,VALID,0.568359,
2009-02-08, 00:06:04,VALID,999.417,VALID,0,VALID,94.8667,VALID,0,VALID,24.4446,VALID,91,VALID,0.299609,
2009-02-08, 00:07:04,VALID,999.379,VALID,0,VALID,94.8591,VALID,0,VALID,24.4251,VALID,91,VALID,0.218359,
2009-02-08, 00:08:04,VALID,999.4,VALID,0,VALID,94.8743,VALID,0,VALID,24.4251,VALID,91,VALID,0.0378906,
2009-02-08, 00:09:04,VALID,999.398,VALID,0,VALID,94.8667,VALID,0,VALID,24.4251,VALID,91,VALID,0.109375,
2009-02-08, 00:10:04,VALID,999.403,VALID,0,VALID,94.8743,VALID,0,VALID,24.4251,VALID,85,VALID,0.363672,
2009-02-08, 00:11:04,VALID,999.398,VALID,0,VALID,94.8896,VALID,0,VALID,24.4251,VALID,12,VALID,0.467969,
2009-02-08, 00:12:04,VALID,999.404,VALID,0,VALID,94.943,VALID,0,VALID,24.3842,VALID,5,VALID,0.45,
2009-02-08, 00:13:04,VALID,999.384,VALID,0,VALID,94.9354,VALID,0,VALID,24.4056,VALID,5,VALID,0.248828,
2009-02-08, 00:14:04,VALID,999.372,VALID,0,VALID,94.9354,VALID,0,VALID,24.4056,VALID,5,VALID,0,
2009-02-08, 00:15:04,VALID,999.393,VALID,0,VALID,94.9506,VALID,0,VALID,24.4056,VALID,7,VALID,0.497266,
2009-02-08, 00:16:04,VALID,999.361,VALID,0,VALID,94.943,VALID,0,VALID,24.4056,VALID,25,VALID,0.35625,
2009-02-08, 00:17:04,VALID,999.397,VALID,0,VALID,94.8972,VALID,0,VALID,24.3861,VALID,26,VALID,0.344922,
2009-02-08, 00:18:04,VALID,999.371,VALID,0,VALID,94.8743,VALID,0,VALID,24.4056,VALID,26,VALID,0.421484,
2009-02-08, 00:19:04,VALID,999.371,VALID,0,VALID,94.798,VALID,0,VALID,24.3861,VALID,26,VALID,0.273047,
2009-02-08, 00:20:04,VALID,999.361,VALID,0,VALID,94.6988,VALID,0,VALID,24.3861,VALID,25,VALID,0.702344,
2009-02-08, 00:21:04,VALID,999.329,VALID,0,VALID,94.737,VALID,0,VALID,24.3666,VALID,25,VALID,0.5375,
2009-02-08, 00:22:04,VALID,999.355,VALID,0,VALID,94.7675,VALID,0,VALID,24.3861,VALID,25,VALID,0.458594,
2009-02-08, 00:23:04,VALID,999.35,VALID,0,VALID,94.7828,VALID,0,VALID,24.3861,VALID,24,VALID,0.515234,
2009-02-08, 00:24:04,VALID,999.349,VALID,0,VALID,94.798,VALID,0,VALID,24.3861,VALID,19,VALID,0.479297,
2009-02-08, 00:25:04,VALID,999.339,VALID,0,VALID,94.8514,VALID,0,VALID,24.3861,VALID,19,VALID,0.244141,
2009-02-08, 00:26:04,VALID,999.319,VALID,0,VALID,94.8591,VALID,0,VALID,24.3861,VALID,19,VALID,0,
2009-02-08, 00:27:04,VALID,999.303,VALID,0,VALID,94.8133,VALID,0,VALID,24.3861,VALID,19,VALID,0,
2009-02-08, 00:28:04,VALID,999.309,VALID,0,VALID,94.8133,VALID,0,VALID,24.3666,VALID,19,VALID,0,
2009-02-08, 00:29:04,VALID,999.351,VALID,0,VALID,94.8285,VALID,0,VALID,24.3666,VALID,19,VALID,0,
2009-02-08, 00:30:04,VALID,999.343,VALID,0,VALID,94.8438,VALID,0,VALID,24.3666,VALID,19,VALID,0.315625,
2009-02-08, 00:31:04,VALID,999.333,VALID,0,VALID,94.8972,VALID,0,VALID,24.3861,VALID,19,VALID,0.308594,
2009-02-08, 00:32:04,VALID,999.307,VALID,0,VALID,94.9125,VALID,0,VALID,24.4075,VALID,343,VALID,0.534375,
2009-02-08, 00:33:04,VALID,999.279,VALID,0,VALID,94.8896,VALID,0,VALID,24.3861,VALID,292,VALID,0.0757812,
2009-02-08, 00:34:04,VALID,999.235,VALID,0,VALID,94.8743,VALID,0,VALID,24.3861,VALID,292,VALID,0.284375,
2009-02-08, 00:35:04,VALID,999.193,VALID,0,VALID,94.8133,VALID,0,VALID,24.3861,VALID,352,VALID,0.614453,
2009-02-08, 00:36:04,VALID,999.245,VALID,0,VALID,94.8285,VALID,0,VALID,24.4056,VALID,352,VALID,0.247266,
2009-02-08, 00:37:04,VALID,999.224,VALID,0,VALID,94.7675,VALID,0,VALID,24.3647,VALID,352,VALID,0.258984,
2009-02-08, 00:38:04,VALID,999.264,VALID,0,VALID,94.737,VALID,0,VALID,24.3666,VALID,352,VALID,0.358203,
2009-02-08, 00:39:04,VALID,999.234,VALID,0,VALID,94.7599,VALID,0,VALID,24.347,VALID,352,VALID,0.311719,
2009-02-08, 00:40:04,VALID,999.263,VALID,0,VALID,94.7446,VALID,0,VALID,24.3257,VALID,352,VALID,0.169922,
2009-02-08, 00:41:04,VALID,999.227,VALID,0,VALID,94.7828,VALID,0,VALID,24.347,VALID,352,VALID,0.384375,
2009-02-08, 00:42:04,VALID,999.223,VALID,0,VALID,94.7675,VALID,0,VALID,24.347,VALID,352,VALID,0.187891,
2009-02-08, 00:43:04,VALID,999.169,VALID,0,VALID,94.7294,VALID,0,VALID,24.3275,VALID,34,VALID,0.9,
2009-02-08, 00:44:04,VALID,999.18,VALID,0,VALID,94.676,VALID,0,VALID,24.3275,VALID,36,VALID,0.803906,
2009-02-08, 00:45:04,VALID,999.174,VALID,0,VALID,94.6988,VALID,0,VALID,24.2866,VALID,36,VALID,0.463281,
2009-02-08, 00:46:04,VALID,999.19,VALID,0,VALID,94.7065,VALID,0,VALID,24.3275,VALID,251,VALID,0.401953,
2009-02-08, 00:47:04,VALID,999.162,VALID,0,VALID,94.737,VALID,0,VALID,24.3275,VALID,246,VALID,0.13125,
2009-02-08, 00:48:04,VALID,999.174,VALID,0,VALID,94.737,VALID,0,VALID,24.308,VALID,124,VALID,0.382813,
2009-02-08, 00:49:04,VALID,999.145,VALID,0,VALID,94.7065,VALID,0,VALID,24.3275,VALID,129,VALID,0.614453,
2009-02-08, 00:50:04,VALID,999.161,VALID,0,VALID,94.6378,VALID,0,VALID,24.3275,VALID,129,VALID,0.422266,
2009-02-08, 00:51:04,VALID,999.142,VALID,0,VALID,94.5691,VALID,0,VALID,24.347,VALID,129,VALID,0.357422,
2009-02-08, 00:52:04,VALID,999.114,VALID,0,VALID,94.5386,VALID,0,VALID,24.3861,VALID,129,VALID,0.426562,
2009-02-08, 00:53:04,VALID,999.124,VALID,0,VALID,94.4165,VALID,0,VALID,24.3861,VALID,129,VALID,0.429688,
2009-02-08, 00:54:04,VALID,999.089,VALID,0,VALID,94.3708,VALID,0,VALID,24.3861,VALID,109,VALID,0.873438,
2009-02-08, 00:55:04,VALID,999.084,VALID,0,VALID,94.3708,VALID,0,VALID,24.4056,VALID,105,VALID,0.907031,
2009-02-08, 00:56:04,VALID,999.048,VALID,0,VALID,94.2792,VALID,0,VALID,24.4056,VALID,98,VALID,1.08555,
2009-02-08, 00:57:04,VALID,999.015,VALID,0,VALID,94.18,VALID,0,VALID,24.4056,VALID,92,VALID,1.05664,
2009-02-08, 00:58:04,VALID,999.049,VALID,0,VALID,93.9511,VALID,0,VALID,24.4251,VALID,82,VALID,1.27266,
2009-02-08, 00:59:04,VALID,999.004,VALID,0,VALID,93.852,VALID,0,VALID,24.4251,VALID,76,VALID,0.930078,
2009-02-08, 01:00:04,VALID,998.997,VALID,0,VALID,93.8901,VALID,0,VALID,24.4056,VALID,76,VALID,0.969141,
2009-02-08, 01:01:04,VALID,998.951,VALID,0,VALID,93.8367,VALID,0,VALID,24.4056,VALID,72,VALID,1.16914,
2009-02-08, 01:02:04,VALID,998.924,VALID,0,VALID,93.9206,VALID,0,VALID,24.3861,VALID,72,VALID,1.06211,
2009-02-08, 01:03:04,VALID,998.902,VALID,0,VALID,93.9359,VALID,0,VALID,24.3666,VALID,67,VALID,1.12266,
2009-02-08, 01:04:04,VALID,998.899,VALID,0,VALID,93.9969,VALID,0,VALID,24.3666,VALID,67,VALID,1.11094,
2009-02-08, 01:05:04,VALID,998.866,VALID,0,VALID,94.0122,VALID,0,VALID,24.347,VALID,76,VALID,1.03398,
2009-02-08, 01:06:04,VALID,998.843,VALID,0,VALID,94.0732,VALID,0,VALID,24.3275,VALID,72,VALID,0.980469,
2009-02-08, 01:07:04,VALID,998.817,VALID,0,VALID,94.1495,VALID,0,VALID,24.3275,VALID,61,VALID,1.12383,
2009-02-08, 01:08:04,VALID,998.809,VALID,0,VALID,94.1419,VALID,0,VALID,24.2866,VALID,60,VALID,0.958984,
2009-02-08, 01:09:04,VALID,998.79,VALID,0,VALID,94.1419,VALID,0,VALID,24.308,VALID,60,VALID,0.672656,
2009-02-08, 01:10:04,VALID,998.777,VALID,0,VALID,94.1724,VALID,0,VALID,24.2885,VALID,60,VALID,0.291016,
2009-02-08, 01:11:04,VALID,998.794,VALID,0,VALID,94.18,VALID,0,VALID,24.2885,VALID,60,VALID,0.0460938,
2009-02-08, 01:12:04,VALID,998.757,VALID,0,VALID,94.2182,VALID,0,VALID,24.269,VALID,60,VALID,0.191797,
2009-02-08, 01:13:04,VALID,998.763,VALID,0,VALID,94.2563,VALID,0,VALID,24.2495,VALID,142,VALID,0.391016,
2009-02-08, 01:14:04,VALID,998.717,VALID,0,VALID,94.3021,VALID,0,VALID,24.2495,VALID,154,VALID,0,
2009-02-08, 01:15:04,VALID,998.715,VALID,0,VALID,94.3326,VALID,0,VALID,24.2299,VALID,154,VALID,0,
2009-02-08, 01:16:04,VALID,998.695,VALID,0,VALID,94.3403,VALID,0,VALID,24.2104,VALID,154,VALID,0,
2009-02-08, 01:17:04,VALID,998.672,VALID,0,VALID,94.3784,VALID,0,VALID,24.2123,VALID,154,VALID,0,
2009-02-08, 01:18:04,VALID,998.629,VALID,0,VALID,94.4623,VALID,0,VALID,24.1909,VALID,154,VALID,0,
2009-02-08, 01:19:04,VALID,998.631,VALID,0,VALID,94.5234,VALID,0,VALID,24.15,VALID,154,VALID,0.0488281,
2009-02-08, 01:20:04,VALID,998.599,VALID,0,VALID,94.5768,VALID,0,VALID,24.1909,VALID,154,VALID,0.292969,
2009-02-08, 01:21:04,VALID,998.594,VALID,0,VALID,94.6226,VALID,0,VALID,24.1909,VALID,154,VALID,0.382031,
2009-02-08, 01:22:04,VALID,998.596,VALID,0,VALID,94.6378,VALID,0,VALID,24.1714,VALID,147,VALID,0.460547,
2009-02-08, 01:23:04,VALID,998.599,VALID,0,VALID,94.6836,VALID,0,VALID,24.1696,VALID,110,VALID,0.482031,
2009-02-08, 01:24:04,VALID,998.595,VALID,0,VALID,94.676,VALID,0,VALID,24.1696,VALID,110,VALID,0.102344,
2009-02-08, 01:25:04,VALID,998.59,VALID,0,VALID,94.7065,VALID,0,VALID,24.2104,VALID,110,VALID,0.160938,
2009-02-08, 01:26:04,VALID,998.583,VALID,0,VALID,94.7065,VALID,0,VALID,24.1909,VALID,110,VALID,0.090625,
2009-02-08, 01:27:04,VALID,998.596,VALID,0,VALID,94.7141,VALID,0,VALID,24.15,VALID,110,VALID,0.196484,
2009-02-08, 01:28:04,VALID,998.593,VALID,0,VALID,94.7141,VALID,0,VALID,24.1714,VALID,110,VALID,0.133984,
2009-02-08, 01:29:04,VALID,998.586,VALID,0,VALID,94.7294,VALID,0,VALID,24.1519,VALID,110,VALID,0.178516,
2009-02-08, 01:30:04,VALID,998.55,VALID,0,VALID,94.7904,VALID,0,VALID,24.1714,VALID,110,VALID,0.188281,
2009-02-08, 01:31:04,VALID,998.575,VALID,0,VALID,94.8057,VALID,0,VALID,24.15,VALID,110,VALID,0.224219,
2009-02-08, 01:32:04,VALID,998.534,VALID,0,VALID,94.8133,VALID,0,VALID,24.15,VALID,110,VALID,0.198437,
2009-02-08, 01:33:04,VALID,998.551,VALID,0,VALID,94.8667,VALID,0,VALID,24.15,VALID,113,VALID,0.664453,
2009-02-08, 01:34:04,VALID,998.543,VALID,0,VALID,94.9277,VALID,0,VALID,24.1714,VALID,114,VALID,0.532422,
2009-02-08, 01:35:04,VALID,998.556,VALID,0,VALID,94.9201,VALID,0,VALID,24.1909,VALID,114,VALID,0.372656,
2009-02-08, 01:36:04,VALID,998.588,VALID,0,VALID,94.9201,VALID,0,VALID,24.2104,VALID,114,VALID,0,
2009-02-08, 01:37:04,VALID,998.542,VALID,0,VALID,94.8972,VALID,0,VALID,24.1909,VALID,114,VALID,0,
2009-02-08, 01:38:04,VALID,998.535,VALID,0,VALID,94.9964,VALID,0,VALID,24.2104,VALID,114,VALID,0.319531,
2009-02-08, 01:39:04,VALID,998.496,VALID,0,VALID,95.0651,VALID,0.112286,VALID,24.2299,VALID,114,VALID,0.429297,
2009-02-08, 01:40:04,VALID,998.507,VALID,0,VALID,95.0956,VALID,0,VALID,24.269,VALID,114,VALID,0.495313,
2009-02-08, 01:41:04,VALID,998.512,VALID,0,VALID,95.1185,VALID,0,VALID,24.269,VALID,114,VALID,0.5875,
2009-02-08, 01:42:04,VALID,998.513,VALID,0,VALID,95.1032,VALID,0,VALID,24.2885,VALID,114,VALID,0.360938,
2009-02-08, 01:43:04,VALID,998.504,VALID,0,VALID,95.088,VALID,0,VALID,24.2885,VALID,114,VALID,0.216797,
2009-02-08, 01:44:04,VALID,998.493,VALID,0,VALID,95.0498,VALID,0,VALID,24.2885,VALID,114,VALID,0.166797,
2009-02-08, 01:45:04,VALID,998.49,VALID,0,VALID,95.0345,VALID,0,VALID,24.2885,VALID,114,VALID,0.101172,
2009-02-08, 01:46:04,VALID,998.476,VALID,0,VALID,95.0193,VALID,0,VALID,24.269,VALID,114,VALID,0,
2009-02-08, 01:47:04,VALID,998.479,VALID,0,VALID,95.0345,VALID,0,VALID,24.269,VALID,114,VALID,0.0414063,
2009-02-08, 01:48:04,VALID,998.463,VALID,0,VALID,95.0651,VALID,0,VALID,24.269,VALID,114,VALID,0,
2009-02-08, 01:49:04,VALID,998.427,VALID,0,VALID,95.0498,VALID,0,VALID,24.269,VALID,101,VALID,0.378906,
2009-02-08, 01:50:04,VALID,998.402,VALID,0,VALID,95.0193,VALID,0,VALID,24.269,VALID,74,VALID,0.517187,
2009-02-08, 01:51:04,VALID,998.413,VALID,0,VALID,94.9964,VALID,0,VALID,24.2671,VALID,93,VALID,0.295703,
2009-02-08, 01:52:04,VALID,998.397,VALID,0,VALID,94.943,VALID,0,VALID,24.269,VALID,93,VALID,0.159375,
2009-02-08, 01:53:04,VALID,998.395,VALID,0,VALID,94.9125,VALID,0,VALID,24.2885,VALID,93,VALID,0,
2009-02-08, 01:54:04,VALID,998.418,VALID,0,VALID,94.9048,VALID,0,VALID,24.269,VALID,93,VALID,0,
2009-02-08, 01:55:04,VALID,998.405,VALID,0,VALID,94.8896,VALID,0,VALID,24.269,VALID,93,VALID,0,
2009-02-08, 01:56:04,VALID,998.389,VALID,0,VALID,94.9125,VALID,0,VALID,24.2495,VALID,93,VALID,0.2375,
2009-02-08, 01:57:04,VALID,998.368,VALID,0,VALID,94.882,VALID,0,VALID,24.2281,VALID,93,VALID,0.336328,
2009-02-08, 01:58:04,VALID,998.381,VALID,0,VALID,94.8209,VALID,0,VALID,24.2299,VALID,93,VALID,0.375,
2009-02-08, 01:59:04,VALID,998.352,VALID,0,VALID,94.798,VALID,0,VALID,24.2104,VALID,77,VALID,0.524219,
2009-02-08, 02:00:04,VALID,998.333,VALID,0,VALID,94.7828,VALID,0,VALID,24.2104,VALID,54,VALID,0.690625,
2009-02-08, 02:01:04,VALID,998.32,VALID,0,VALID,94.8057,VALID,0,VALID,24.2104,VALID,54,VALID,0.393359,
2009-02-08, 02:02:04,VALID,998.312,VALID,0,VALID,94.7599,VALID,0,VALID,24.1909,VALID,54,VALID,0.417578,
2009-02-08, 02:03:04,VALID,998.292,VALID,0,VALID,94.7294,VALID,0,VALID,24.1714,VALID,54,VALID,0.219141,
2009-02-08, 02:04:04,VALID,998.3,VALID,0,VALID,94.7446,VALID,0,VALID,24.1519,VALID,54,VALID,0.323438,
2009-02-08, 02:05:04,VALID,998.296,VALID,0,VALID,94.8209,VALID,0,VALID,24.1714,VALID,54,VALID,0.2875,
2009-02-08, 02:06:04,VALID,998.306,VALID,0,VALID,94.8667,VALID,0,VALID,24.1714,VALID,54,VALID,0.407422,
2009-02-08, 02:07:04,VALID,998.314,VALID,0,VALID,94.8896,VALID,0,VALID,24.1909,VALID,54,VALID,0.353125,
2009-02-08, 02:08:04,VALID,998.327,VALID,0,VALID,94.8667,VALID,0,VALID,24.1909,VALID,54,VALID,0.438281,
2009-02-08, 02:09:04,VALID,998.296,VALID,0,VALID,94.8514,VALID,0,VALID,24.1909,VALID,54,VALID,0.680469,
2009-02-08, 02:10:04,VALID,998.305,VALID,0,VALID,94.8285,VALID,0,VALID,24.1909,VALID,54,VALID,0.644922,
2009-02-08, 02:11:04,VALID,998.307,VALID,0,VALID,94.8362,VALID,0,VALID,24.1909,VALID,70,VALID,0.8,
2009-02-08, 02:12:04,VALID,998.31,VALID,0,VALID,94.8972,VALID,0,VALID,24.1909,VALID,82,VALID,0.841406,
2009-02-08, 02:13:04,VALID,998.324,VALID,0,VALID,94.9583,VALID,0,VALID,24.2104,VALID,84,VALID,0.711719,
2009-02-08, 02:14:04,VALID,998.331,VALID,0,VALID,94.9735,VALID,0,VALID,24.2104,VALID,96,VALID,0.665625,
2009-02-08, 02:15:04,VALID,998.314,VALID,0,VALID,94.9735,VALID,0,VALID,24.2104,VALID,106,VALID,0.517969,
2009-02-08, 02:16:04,VALID,998.315,VALID,0,VALID,94.9583,VALID,0,VALID,24.1909,VALID,145,VALID,0.243359,
2009-02-08, 02:17:04,VALID,998.35,VALID,0,VALID,94.9583,VALID,0,VALID,24.1891,VALID,149,VALID,0.645703,
2009-02-08, 02:18:04,VALID,998.328,VALID,0,VALID,95.0269,VALID,0,VALID,24.2104,VALID,150,VALID,0.997656,
2009-02-08, 02:19:04,VALID,998.334,VALID,0,VALID,95.0422,VALID,0,VALID,24.2299,VALID,150,VALID,0.660937,
2009-02-08, 02:20:04,VALID,998.349,VALID,0,VALID,95.0269,VALID,0,VALID,24.2299,VALID,171,VALID,0.663672,
2009-02-08, 02:21:04,VALID,998.388,VALID,0,VALID,95.0269,VALID,0,VALID,24.2299,VALID,174,VALID,0.661719,
2009-02-08, 02:22:04,VALID,998.34,VALID,0,VALID,95.0422,VALID,0,VALID,24.2281,VALID,174,VALID,0.479297,
2009-02-08, 02:23:04,VALID,998.363,VALID,0,VALID,95.0193,VALID,0,VALID,24.2495,VALID,174,VALID,0.558594,
2009-02-08, 02:24:04,VALID,998.36,VALID,0,VALID,95.0422,VALID,0,VALID,24.2281,VALID,181,VALID,0.535156,
2009-02-08, 02:25:04,VALID,998.349,VALID,0,VALID,95.0803,VALID,0,VALID,24.269,VALID,172,VALID,0.637109,
2009-02-08, 02:26:04,VALID,998.38,VALID,0,VALID,95.0651,VALID,0,VALID,24.2885,VALID,172,VALID,0.685547,
2009-02-08, 02:27:04,VALID,998.395,VALID,0,VALID,95.0422,VALID,0,VALID,24.2885,VALID,172,VALID,0.317187,
2009-02-08, 02:28:04,VALID,998.382,VALID,0,VALID,94.9888,VALID,0,VALID,24.2885,VALID,187,VALID,0.575,
2009-02-08, 02:29:04,VALID,998.39,VALID,0,VALID,94.943,VALID,0,VALID,24.2885,VALID,190,VALID,0.592578,
2009-02-08, 02:30:04,VALID,998.372,VALID,0,VALID,94.9201,VALID,0,VALID,24.2885,VALID,190,VALID,0.41875,
2009-02-08, 02:31:04,VALID,998.386,VALID,0,VALID,94.8285,VALID,0,VALID,24.2885,VALID,190,VALID,0.101953,
2009-02-08, 02:32:04,VALID,998.363,VALID,0,VALID,94.8438,VALID,0,VALID,24.308,VALID,190,VALID,0,
2009-02-08, 02:33:04,VALID,998.393,VALID,0,VALID,94.7599,VALID,0,VALID,24.2885,VALID,190,VALID,0,
2009-02-08, 02:34:04,VALID,998.366,VALID,0,VALID,94.7828,VALID,0,VALID,24.2885,VALID,189,VALID,0,
2009-02-08, 02:35:04,VALID,998.365,VALID,0,VALID,94.7217,VALID,0,VALID,24.2671,VALID,110,VALID,0.395703,
2009-02-08, 02:36:04,VALID,998.372,VALID,0,VALID,94.6302,VALID,0,VALID,24.2885,VALID,101,VALID,0.781641,
2009-02-08, 02:37:04,VALID,998.371,VALID,0,VALID,94.592,VALID,0,VALID,24.2885,VALID,89,VALID,1.11719,
2009-02-08, 02:38:04,VALID,998.346,VALID,0,VALID,94.6378,VALID,0,VALID,24.308,VALID,85,VALID,0.885938,
2009-02-08, 02:39:04,VALID,998.387,VALID,0,VALID,94.6607,VALID,0,VALID,24.308,VALID,91,VALID,0.883203,
2009-02-08, 02:40:04,VALID,998.39,VALID,0,VALID,94.6302,VALID,0,VALID,24.308,VALID,84,VALID,0.675781,
2009-02-08, 02:41:04,VALID,998.389,VALID,0,VALID,94.6302,VALID,0,VALID,24.308,VALID,84,VALID,0.471094,
2009-02-08, 02:42:04,VALID,998.428,VALID,0,VALID,94.6149,VALID,0,VALID,24.2885,VALID,82,VALID,0.392969,
2009-02-08, 02:43:04,VALID,998.438,VALID,0,VALID,94.5615,VALID,0,VALID,24.2885,VALID,33,VALID,0.559766,
2009-02-08, 02:44:04,VALID,998.423,VALID,0,VALID,94.531,VALID,0,VALID,24.2903,VALID,26,VALID,0.712109,
2009-02-08, 02:45:04,VALID,998.392,VALID,0,VALID,94.4776,VALID,0,VALID,24.2299,VALID,25,VALID,0.902734,
2009-02-08, 02:46:04,VALID,998.382,VALID,0,VALID,94.5386,VALID,0,VALID,24.2299,VALID,25,VALID,0.667578,
2009-02-08, 02:47:04,VALID,998.381,VALID,0,VALID,94.5386,VALID,0,VALID,24.2299,VALID,25,VALID,0.562109,
2009-02-08, 02:48:04,VALID,998.386,VALID,0,VALID,94.5539,VALID,0,VALID,24.2104,VALID,24,VALID,0.736328,
2009-02-08, 02:49:04,VALID,998.395,VALID,0,VALID,94.592,VALID,0,VALID,24.2104,VALID,7,VALID,0.660547,
2009-02-08, 02:50:04,VALID,998.368,VALID,0,VALID,94.676,VALID,0,VALID,24.1714,VALID,6,VALID,0.532031,
2009-02-08, 02:51:04,VALID,998.341,VALID,0,VALID,94.6988,VALID,0,VALID,24.1909,VALID,6,VALID,0.395703,
2009-02-08, 02:52:04,VALID,998.346,VALID,0,VALID,94.7446,VALID,0,VALID,24.1909,VALID,6,VALID,0.619922,
2009-02-08, 02:53:04,VALID,998.336,VALID,0,VALID,94.8209,VALID,0,VALID,24.1909,VALID,6,VALID,0.766797,
2009-02-08, 02:54:04,VALID,998.359,VALID,0,VALID,94.8362,VALID,0,VALID,24.1909,VALID,6,VALID,0.724609,
2009-02-08, 02:55:04,VALID,998.325,VALID,0,VALID,94.8438,VALID,0,VALID,24.1909,VALID,9,VALID,0.678125,
2009-02-08, 02:56:04,VALID,998.298,VALID,0,VALID,94.8133,VALID,0,VALID,24.1714,VALID,26,VALID,0.696875,
2009-02-08, 02:57:04,VALID,998.271,VALID,0,VALID,94.8438,VALID,0,VALID,24.1909,VALID,49,VALID,0.573828,
2009-02-08, 02:58:04,VALID,998.235,VALID,0,VALID,94.8362,VALID,0,VALID,24.15,VALID,80,VALID,0.691016,
2009-02-08, 02:59:04,VALID,998.243,VALID,0,VALID,94.7904,VALID,0,VALID,24.1714,VALID,87,VALID,0.677734,
2009-02-08, 03:00:04,VALID,998.231,VALID,0,VALID,94.7828,VALID,0,VALID,24.1519,VALID,87,VALID,0.348828,
2009-02-08, 03:01:04,VALID,998.259,VALID,0,VALID,94.7446,VALID,0,VALID,24.1519,VALID,90,VALID,0.354297,
2009-02-08, 03:02:04,VALID,998.244,VALID,0,VALID,94.7523,VALID,0,VALID,24.1519,VALID,130,VALID,0.311328,
2009-02-08, 03:03:04,VALID,998.259,VALID,0,VALID,94.7294,VALID,0,VALID,24.1714,VALID,130,VALID,0,
2009-02-08, 03:04:04,VALID,998.241,VALID,0,VALID,94.7065,VALID,0,VALID,24.1519,VALID,130,VALID,0,
2009-02-08, 03:05:04,VALID,998.254,VALID,0,VALID,94.7446,VALID,0,VALID,24.1324,VALID,130,VALID,0.00859375,
2009-02-08, 03:06:04,VALID,998.25,VALID,0,VALID,94.7751,VALID,0,VALID,24.1324,VALID,130,VALID,0.233594,
2009-02-08, 03:07:04,VALID,998.282,VALID,0,VALID,94.7523,VALID,0,VALID,24.1324,VALID,77,VALID,0.571094,
2009-02-08, 03:08:04,VALID,998.297,VALID,0,VALID,94.7141,VALID,0,VALID,24.1519,VALID,77,VALID,0.354688,
2009-02-08, 03:09:04,VALID,998.301,VALID,0,VALID,94.676,VALID,0,VALID,24.1519,VALID,76,VALID,0.259375,
2009-02-08, 03:10:04,VALID,998.323,VALID,0,VALID,94.6378,VALID,0,VALID,24.1519,VALID,76,VALID,0,
2009-02-08, 03:11:04,VALID,998.337,VALID,0,VALID,94.6683,VALID,0,VALID,24.1519,VALID,76,VALID,0.263672,
2009-02-08, 03:12:04,VALID,998.327,VALID,0,VALID,94.6836,VALID,0,VALID,24.1324,VALID,76,VALID,0.353125,
2009-02-08, 03:13:04,VALID,998.332,VALID,0,VALID,94.676,VALID,0,VALID,24.111,VALID,76,VALID,0.416406,
2009-02-08, 03:14:04,VALID,998.321,VALID,0,VALID,94.6454,VALID,0,VALID,24.1324,VALID,76,VALID,0.561328,
2009-02-08, 03:15:04,VALID,998.322,VALID,0,VALID,94.6531,VALID,0,VALID,24.1732,VALID,76,VALID,0.808984,
2009-02-08, 03:16:04,VALID,998.301,VALID,0,VALID,94.5844,VALID,0,VALID,24.1519,VALID,84,VALID,0.810156,
2009-02-08, 03:17:04,VALID,998.346,VALID,0,VALID,94.592,VALID,0,VALID,24.1714,VALID,95,VALID,0.789844,
2009-02-08, 03:18:04,VALID,998.331,VALID,0,VALID,94.6226,VALID,0,VALID,24.1909,VALID,101,VALID,1.15937,
2009-02-08, 03:19:04,VALID,998.325,VALID,0,VALID,94.6149,VALID,0,VALID,24.2104,VALID,98,VALID,0.834766,
2009-02-08, 03:20:04,VALID,998.31,VALID,0,VALID,94.676,VALID,0,VALID,24.2299,VALID,100,VALID,0.665625,
2009-02-08, 03:21:04,VALID,998.311,VALID,0,VALID,94.6683,VALID,0,VALID,24.2299,VALID,103,VALID,0.495703,
2009-02-08, 03:22:04,VALID,998.284,VALID,0,VALID,94.6378,VALID,0,VALID,24.1891,VALID,104,VALID,0.280469,
2009-02-08, 03:23:04,VALID,998.261,VALID,0,VALID,94.6454,VALID,0,VALID,24.2299,VALID,104,VALID,0.151562,
2009-02-08, 03:24:04,VALID,998.286,VALID,0,VALID,94.6607,VALID,0,VALID,24.2104,VALID,104,VALID,0.135937,
2009-02-08, 03:25:04,VALID,998.276,VALID,0,VALID,94.7065,VALID,0,VALID,24.2104,VALID,102,VALID,0.382031,
2009-02-08, 03:26:04,VALID,998.247,VALID,0,VALID,94.6683,VALID,0,VALID,24.2104,VALID,102,VALID,0.728125,
2009-02-08, 03:27:04,VALID,998.262,VALID,0,VALID,94.676,VALID,0,VALID,24.2104,VALID,100,VALID,0.458984,
2009-02-08, 03:28:04,VALID,998.271,VALID,0,VALID,94.6378,VALID,0,VALID,24.2104,VALID,96,VALID,0.20625,
2009-02-08, 03:29:04,VALID,998.284,VALID,0,VALID,94.6531,VALID,0,VALID,24.1891,VALID,96,VALID,0,
2009-02-08, 03:30:04,VALID,998.295,VALID,0,VALID,94.6531,VALID,0,VALID,24.1909,VALID,96,VALID,0.000390625,
2009-02-08, 03:31:04,VALID,998.297,VALID,0,VALID,94.6531,VALID,0,VALID,24.1909,VALID,96,VALID,0.178906,
2009-02-08, 03:32:04,VALID,998.32,VALID,0,VALID,94.6302,VALID,0,VALID,24.1714,VALID,51,VALID,0.473047,
2009-02-08, 03:33:04,VALID,998.308,VALID,0,VALID,94.5081,VALID,0,VALID,24.15,VALID,40,VALID,0.607422,
2009-02-08, 03:34:04,VALID,998.311,VALID,0,VALID,94.3784,VALID,0,VALID,24.1324,VALID,53,VALID,0.926953,
2009-02-08, 03:35:04,VALID,998.34,VALID,0,VALID,94.2868,VALID,0,VALID,24.1128,VALID,43,VALID,0.967188,
2009-02-08, 03:36:04,VALID,998.369,VALID,0,VALID,94.2487,VALID,0,VALID,24.1128,VALID,42,VALID,0.600781,
2009-02-08, 03:37:04,VALID,998.364,VALID,0,VALID,94.2258,VALID,0,VALID,24.0933,VALID,42,VALID,0.462891,
2009-02-08, 03:38:04,VALID,998.342,VALID,0,VALID,94.2868,VALID,0,VALID,24.1128,VALID,311,VALID,0.497266,
2009-02-08, 03:39:04,VALID,998.336,VALID,0,VALID,94.2945,VALID,0,VALID,24.1128,VALID,311,VALID,0.400391,
2009-02-08, 03:40:04,VALID,998.316,VALID,0,VALID,94.2945,VALID,0,VALID,24.1128,VALID,311,VALID,0.265625,
2009-02-08, 03:41:04,VALID,998.328,VALID,0,VALID,94.3174,VALID,0,VALID,24.1128,VALID,311,VALID,0.0867188,
2009-02-08, 03:42:04,VALID,998.333,VALID,0,VALID,94.325,VALID,0,VALID,24.1128,VALID,311,VALID,0.278516,
2009-02-08, 03:43:04,VALID,998.324,VALID,0,VALID,94.3555,VALID,0,VALID,24.1128,VALID,312,VALID,0.340234,
2009-02-08, 03:44:04,VALID,998.34,VALID,0,VALID,94.3631,VALID,0,VALID,24.1128,VALID,312,VALID,0.440234,
2009-02-08, 03:45:04,VALID,998.341,VALID,0,VALID,94.325,VALID,0,VALID,24.0933,VALID,338,VALID,0.610937,
2009-02-08, 03:46:04,VALID,998.326,VALID,0,VALID,94.3097,VALID,0,VALID,24.1147,VALID,4,VALID,0.687109,
2009-02-08, 03:47:04,VALID,998.324,VALID,0,VALID,94.264,VALID,0,VALID,24.0738,VALID,24,VALID,0.803516,